TimeCDT,TemperatureF,Dew PointF,Humidity,Sea Level PressureIn,VisibilityMPH,Wind Direction,Wind SpeedMPH,Gust SpeedMPH,PrecipitationIn,Events,Conditions,WindDirDegrees,DateUTC
12:53 AM,82.9,73.0,72,29.92,10.0,SE,10.4,-,N/A,,Clear,130,2013-07-25 05:53:00
1:53 AM,82.0,73.0,74,29.93,10.0,SE,9.2,-,N/A,,Clear,140,2013-07-25 06:53:00
2:53 AM,80.1,73.0,79,29.93,10.0,SE,9.2,-,N/A,,Clear,140,2013-07-25 07:53:00
3:53 AM,79.0,72.0,79,29.94,10.0,SE,8.1,-,N/A,,Clear,140,2013-07-25 08:53:00
4:53 AM,77.0,71.1,82,29.94,10.0,ESE,5.8,-,N/A,,Clear,120,2013-07-25 09:53:00
5:53 AM,75.0,71.1,87,29.95,10.0,SE,5.8,-,N/A,,Clear,130,2013-07-25 10:53:00
6:53 AM,73.9,71.1,91,29.96,9.0,ESE,4.6,-,N/A,,Clear,110,2013-07-25 11:53:00
7:53 AM,75.9,72.0,87,29.98,7.0,East,3.5,-,N/A,,Clear,100,2013-07-25 12:53:00
8:38 AM,78.8,73.4,83,30.01,9.0,ESE,8.1,-,N/A,,Mostly Cloudy,120,2013-07-25 13:38:00
8:53 AM,79.0,73.0,82,29.98,9.0,SSE,9.2,-,N/A,,Mostly Cloudy,150,2013-07-25 13:53:00
9:50 AM,82.4,73.4,74,30.01,10.0,SSE,6.9,-,N/A,,Overcast,150,2013-07-25 14:50:00
9:53 AM,82.0,73.0,74,29.99,10.0,South,8.1,-,N/A,,Overcast,170,2013-07-25 14:53:00
10:27 AM,84.2,73.4,70,30.01,10.0,Variable,5.8,-,N/A,,Scattered Clouds,0,2013-07-25 15:27:00
10:53 AM,87.1,73.0,63,29.99,10.0,Calm,Calm,-,N/A,,Clear,0,2013-07-25 15:53:00
11:53 AM,90.0,72.0,55,29.99,10.0,Calm,Calm,-,N/A,,Scattered Clouds,0,2013-07-25 16:53:00
12:53 PM,93.9,70.0,46,29.97,10.0,Variable,5.8,-,N/A,,Clear,0,2013-07-25 17:53:00
1:53 PM,97.0,64.9,35,29.96,10.0,SE,10.4,16.1,N/A,,Clear,140,2013-07-25 18:53:00
2:53 PM,99.0,63.0,30,29.94,10.0,Variable,3.5,17.3,N/A,,Clear,0,2013-07-25 19:53:00
3:53 PM,100.9,64.9,31,29.92,10.0,East,8.1,-,N/A,,Clear,100,2013-07-25 20:53:00
4:53 PM,102.0,61.0,26,29.91,10.0,Variable,4.6,17.3,N/A,,Clear,0,2013-07-25 21:53:00
5:53 PM,102.0,61.0,26,29.90,10.0,South,8.1,16.1,N/A,,Clear,170,2013-07-25 22:53:00
6:53 PM,102.0,59.0,24,29.88,10.0,East,10.4,16.1,N/A,,Scattered Clouds,90,2013-07-25 23:53:00
7:53 PM,100.0,61.0,28,29.88,10.0,SE,5.8,-,N/A,,Clear,140,2013-07-26 00:53:00
8:53 PM,93.9,70.0,46,29.90,10.0,ESE,18.4,24.2,N/A,,Clear,120,2013-07-26 01:53:00
9:53 PM,90.0,71.1,54,29.93,10.0,SE,13.8,26.5,N/A,,Clear,140,2013-07-26 02:53:00
10:53 PM,88.0,69.1,53,29.96,10.0,SE,12.7,19.6,N/A,,Clear,130,2013-07-26 03:53:00
11:53 PM,86.0,69.1,57,29.97,10.0,SE,11.5,-,N/A,,Clear,140,2013-07-26 04:53:00